Precipitable_Water
0.34 0.29 0.27 0.29 0.31 0.30 0.28 0.23 0.21 0.24 0.29 0.33 0.33 0.37 0.43 0.59 0.62 0.64 0.68 0.73 0.81 0.90 1.03 1.11 1.16 1.16 1.12 1.11 0.99 0.95 0.93 0.95 0.95 0.84 0.73 0.62 0.55 0.55 0.53 0.53 0.52 0.51 0.49 0.47
0.27 0.24 0.28 0.29 0.32 0.31 0.28 0.25 0.25 0.28 0.31 0.35 0.36 0.36 0.43 0.52 0.60 0.66 0.71 0.74 0.81 0.95 0.96 1.05 1.12 1.09 1.03 1.00 0.93 0.89 0.86 0.84 0.81 0.74 0.66 0.60 0.54 0.50 0.49 0.50 0.50 0.49 0.47 0.46
0.22 0.24 0.28 0.29 0.31 0.31 0.31 0.30 0.32 0.31 0.37 0.38 0.38 0.35 0.46 0.54 0.63 0.71 0.75 0.80 0.91 0.95 0.98 1.00 0.99 1.01 1.00 0.93 0.87 0.82 0.78 0.79 0.76 0.69 0.65 0.56 0.51 0.50 0.46 0.47 0.47 0.49 0.48 0.44
0.24 0.29 0.29 0.29 0.31 0.32 0.29 0.36 0.35 0.34 0.33 0.29 0.42 0.25 0.37 0.49 0.56 0.65 0.73 0.79 0.79 0.82 0.87 0.93 0.96 0.94 0.90 0.86 0.87 0.85 0.81 0.77 0.73 0.68 0.57 0.47 0.42 0.40 0.42 0.44 0.46 0.45 0.44 0.44
0.25 0.25 0.25 0.29 0.31 0.34 0.32 0.37 0.36 0.36 0.33 0.33 0.32 0.30 0.37 0.47 0.42 0.45 0.50 0.59 0.65 0.70 0.73 0.76 0.77 0.78 0.88 0.89 0.85 0.87 0.78 0.69 0.65 0.59 0.50 0.45 0.41 0.41 0.43 0.43 0.44 0.45 0.46 0.47
0.23 0.28 0.30 0.33 0.35 0.35 0.37 0.33 0.34 0.33 0.29 0.22 0.29 0.26 0.33 0.37 0.39 0.44 0.49 0.56 0.60 0.63 0.64 0.69 0.78 0.80 0.82 0.87 0.85 0.79 0.70 0.62 0.58 0.53 0.50 0.46 0.43 0.42 0.42 0.43 0.44 0.46 0.48 0.49
0.27 0.30 0.35 0.37 0.33 0.37 0.35 0.29 0.21 0.19 0.19 0.22 0.30 0.23 0.33 0.43 0.47 0.50 0.52 0.53 0.54 0.55 0.60 0.68 0.72 0.77 0.80 0.79 0.73 0.65 0.58 0.52 0.53 0.52 0.50 0.47 0.46 0.46 0.45 0.45 0.45 0.47 0.50 0.51
0.22 0.25 0.34 0.41 0.35 0.31 0.30 0.25 0.19 0.14 0.14 0.18 0.25 0.23 0.35 0.47 0.49 0.49 0.50 0.53 0.56 0.61 0.69 0.74 0.78 0.77 0.73 0.67 0.64 0.62 0.57 0.53 0.50 0.50 0.49 0.50 0.54 0.51 0.49 0.50 0.51 0.53 0.52 0.50
0.27 0.27 0.38 0.38 0.39 0.34 0.31 0.23 0.29 0.19 0.25 0.18 0.21 0.32 0.42 0.46 0.44 0.48 0.49 0.56 0.61 0.69 0.72 0.73 0.74 0.70 0.63 0.60 0.62 0.62 0.60 0.57 0.55 0.53 0.52 0.54 0.57 0.56 0.52 0.51 0.54 0.53 0.52 0.50
0.31 0.24 0.32 0.35 0.37 0.36 0.28 0.33 0.20 0.26 0.14 0.11 0.18 0.21 0.27 0.35 0.41 0.47 0.51 0.59 0.64 0.68 0.68 0.69 0.66 0.63 0.57 0.58 0.62 0.64 0.59 0.55 0.54 0.56 0.57 0.54 0.54 0.55 0.54 0.53 0.52 0.52 0.51 0.51
0.35 0.30 0.30 0.32 0.28 0.24 0.23 0.24 0.24 0.25 0.21 0.13 0.13 0.23 0.38 0.42 0.51 0.49 0.54 0.60 0.63 0.61 0.63 0.59 0.59 0.57 0.55 0.59 0.60 0.60 0.58 0.56 0.56 0.56 0.53 0.51 0.53 0.55 0.55 0.54 0.53 0.52 0.53 0.52
0.39 0.33 0.23 0.24 0.30 0.33 0.31 0.27 0.25 0.16 0.16 0.22 0.20 0.23 0.49 0.51 0.52 0.55 0.56 0.60 0.63 0.63 0.56 0.52 0.52 0.53 0.50 0.55 0.58 0.60 0.60 0.56 0.53 0.52 0.51 0.52 0.55 0.57 0.55 0.55 0.54 0.54 0.51 0.52
0.35 0.27 0.16 0.22 0.28 0.31 0.26 0.28 0.26 0.26 0.26 0.19 0.19 0.26 0.50 0.54 0.53 0.57 0.56 0.51 0.47 0.48 0.49 0.55 0.52 0.48 0.50 0.51 0.54 0.55 0.56 0.54 0.53 0.53 0.55 0.57 0.58 0.58 0.56 0.57 0.54 0.50 0.48 0.51
0.34 0.22 0.17 0.13 0.17 0.22 0.20 0.24 0.27 0.27 0.21 0.24 0.24 0.27 0.36 0.45 0.47 0.46 0.43 0.46 0.47 0.52 0.50 0.48 0.46 0.47 0.48 0.50 0.52 0.55 0.56 0.58 0.59 0.61 0.60 0.59 0.59 0.58 0.53 0.54 0.53 0.53 0.51 0.52
0.31 0.19 0.21 0.22 0.24 0.24 0.24 0.25 0.27 0.25 0.27 0.23 0.26 0.28 0.34 0.39 0.40 0.43 0.46 0.49 0.47 0.45 0.46 0.45 0.47 0.52 0.56 0.57 0.60 0.59 0.58 0.56 0.55 0.53 0.53 0.53 0.53 0.55 0.54 0.54 0.56 0.55 0.54 0.55
0.31 0.21 0.24 0.20 0.24 0.24 0.23 0.27 0.28 0.29 0.29 0.29 0.30 0.32 0.40 0.46 0.46 0.45 0.45 0.47 0.46 0.46 0.47 0.50 0.53 0.57 0.57 0.51 0.48 0.47 0.47 0.49 0.52 0.51 0.49 0.48 0.51 0.52 0.53 0.54 0.54 0.53 0.52 0.56
0.26 0.22 0.20 0.17 0.21 0.20 0.18 0.26 0.29 0.30 0.33 0.33 0.28 0.36 0.44 0.42 0.46 0.49 0.48 0.47 0.46 0.47 0.52 0.56 0.55 0.45 0.38 0.39 0.42 0.43 0.47 0.49 0.50 0.49 0.48 0.49 0.49 0.50 0.52 0.52 0.49 0.49 0.53 0.55
0.24 0.23 0.21 0.18 0.19 0.11 0.24 0.33 0.35 0.31 0.34 0.37 0.38 0.41 0.45 0.49 0.52 0.53 0.52 0.50 0.52 0.54 0.49 0.41 0.35 0.33 0.35 0.39 0.41 0.45 0.48 0.49 0.49 0.45 0.45 0.49 0.51 0.51 0.51 0.50 0.48 0.51 0.53 0.51
0.30 0.25 0.19 0.16 0.16 0.18 0.25 0.31 0.32 0.31 0.35 0.45 0.43 0.48 0.49 0.52 0.50 0.48 0.56 0.54 0.44 0.35 0.31 0.30 0.31 0.31 0.34 0.37 0.42 0.45 0.47 0.48 0.44 0.42 0.43 0.52 0.53 0.52 0.52 0.51 0.51 0.52 0.52 0.52
0.31 0.30 0.20 0.17 0.14 0.13 0.27 0.35 0.42 0.40 0.31 0.49 0.50 0.48 0.48 0.47 0.36 0.37 0.39 0.33 0.29 0.28 0.27 0.27 0.29 0.31 0.36 0.42 0.49 0.46 0.45 0.49 0.47 0.49 0.53 0.51 0.49 0.51 0.48 0.49 0.48 0.49 0.49 0.48
0.24 0.25 0.20 0.20 0.20 0.24 0.35 0.40 0.44 0.30 0.35 0.46 0.46 0.46 0.44 0.34 0.31 0.30 0.31 0.27 0.25 0.25 0.25 0.28 0.28 0.29 0.40 0.50 0.52 0.51 0.51 0.51 0.52 0.52 0.46 0.42 0.40 0.38 0.39 0.39 0.39 0.39 0.38 0.38
0.23 0.21 0.22 0.23 0.20 0.19 0.44 0.43 0.34 0.43 0.47 0.47 0.46 0.35 0.28 0.26 0.27 0.26 0.23 0.21 0.23 0.23 0.24 0.26 0.28 0.35 0.43 0.48 0.52 0.47 0.43 0.45 0.42 0.37 0.33 0.33 0.33 0.33 0.33 0.33 0.33 0.32 0.32 0.32
0.23 0.30 0.26 0.30 0.31 0.45 0.49 0.44 0.48 0.47 0.43 0.41 0.32 0.27 0.25 0.23 0.21 0.19 0.19 0.21 0.22 0.23 0.24 0.29 0.30 0.32 0.39 0.40 0.38 0.32 0.33 0.34 0.31 0.30 0.29 0.30 0.30 0.30 0.30 0.29 0.29 0.28 0.28 0.27
0.35 0.41 0.34 0.32 0.41 0.44 0.46 0.47 0.45 0.41 0.35 0.31 0.27 0.25 0.23 0.17 0.18 0.20 0.21 0.22 0.23 0.26 0.27 0.28 0.28 0.26 0.27 0.29 0.29 0.29 0.29 0.29 0.29 0.28 0.28 0.28 0.27 0.27 0.28 0.28 0.28 0.26 0.25 0.24
0.38 0.41 0.37 0.37 0.43 0.43 0.42 0.39 0.32 0.26 0.24 0.22 0.23 0.21 0.19 0.20 0.20 0.21 0.22 0.25 0.26 0.25 0.24 0.25 0.24 0.24 0.25 0.27 0.27 0.29 0.29 0.29 0.28 0.28 0.27 0.27 0.27 0.27 0.26 0.27 0.27 0.26 0.27 0.25
0.42 0.38 0.33 0.31 0.38 0.37 0.34 0.30 0.25 0.19 0.18 0.20 0.19 0.19 0.22 0.22 0.21 0.23 0.23 0.23 0.23 0.22 0.23 0.23 0.24 0.25 0.25 0.26 0.27 0.27 0.28 0.28 0.27 0.25 0.25 0.25 0.26 0.25 0.26 0.26 0.26 0.29 0.28 0.28
Wind_Speed
9 12 12 13 13 15 14 15 17 15 13 16 17 18 16 13 16 16 17 17 18 17 14 14 14 13 12 12 11 11 13 15 16 17 18 19 20 22 22 22 22 23 23 23
10 12 11 9 11 11 12 13 14 14 12 13 15 15 14 14 16 17 18 18 19 16 16 15 16 11 14 13 12 13 13 15 17 18 18 21 22 22 22 22 23 23 23 24
11 10 9 10 11 11 11 12 11 11 8 13 14 17 11 12 14 15 17 18 18 17 17 17 16 17 14 11 13 14 16 17 18 18 21 22 22 21 21 21 22 22 23 24
9 6 7 10 9 8 10 8 11 12 13 14 11 16 13 10 10 11 13 14 15 16 17 18 17 17 18 17 18 19 20 18 19 20 22 21 21 20 20 20 21 23 23 24
6 9 10 10 8 9 10 11 12 14 16 16 16 13 9 9 9 13 14 14 14 14 14 15 16 16 18 19 18 18 17 17 18 18 18 18 18 19 20 21 22 23 24 25
12 9 9 9 10 10 11 13 13 14 15 15 11 13 10 13 17 15 13 12 12 11 11 11 13 14 15 16 17 16 15 16 17 18 19 20 21 22 21 22 23 23 24 25
8 7 7 9 12 9 11 13 14 12 12 13 10 15 10 14 15 12 10 10 9 8 8 9 10 12 13 14 13 13 15 17 19 20 21 21 21 22 22 23 23 25 25 25
9 7 9 10 10 12 13 13 13 15 16 17 17 12 9 12 11 10 8 6 5 4 6 8 9 10 11 11 13 15 16 18 19 20 21 21 21 22 23 23 24 24 25 25
9 8 8 9 11 13 11 14 13 17 14 15 10 7 8 10 9 7 6 5 4 5 6 7 9 9 10 12 14 16 17 18 19 21 21 22 23 23 23 24 24 24 24 24
9 11 11 11 13 11 14 13 13 11 9 8 7 8 8 13 11 6 5 3 3 4 7 8 9 11 12 14 15 16 18 19 20 21 21 22 23 23 23 23 24 24 23 24
10 11 9 12 12 14 13 10 8 6 7 7 9 6 10 12 11 4 4 4 7 7 8 10 11 13 15 16 17 18 18 20 21 22 23 24 24 24 24 24 24 23 23 24
10 11 12 12 10 9 8 6 5 6 5 7 8 6 9 7 4 3 5 7 10 10 10 11 14 15 16 17 18 19 21 22 23 24 25 25 25 25 24 24 23 23 24 24
10 11 11 9 8 8 6 6 5 4 5 6 7 6 7 8 6 5 7 9 8 10 12 15 15 17 18 19 20 21 21 22 23 25 26 26 25 24 24 23 23 22 23 25
10 9 11 9 6 6 6 6 6 7 7 6 8 8 8 7 7 7 7 8 10 14 15 15 17 17 18 19 21 22 23 24 24 25 25 24 23 23 23 22 22 22 24 26
9 7 5 4 4 4 4 5 5 6 8 9 7 8 7 7 8 9 11 13 13 14 16 16 17 18 21 22 24 23 22 22 23 23 22 22 22 22 22 21 21 22 24 25
8 6 5 3 4 4 4 4 3 5 5 6 7 8 8 10 10 12 14 14 14 15 16 17 18 21 23 22 20 20 20 19 20 20 19 19 18 19 19 19 20 22 23 21
8 7 8 5 6 6 7 7 7 7 9 11 11 10 10 10 12 14 14 14 15 16 17 18 18 18 18 18 19 18 17 17 17 16 15 16 18 18 18 19 21 21 18 16
8 6 6 5 6 8 6 7 9 9 10 11 11 11 11 11 12 11 15 15 15 14 14 13 14 15 16 17 17 17 15 14 13 13 14 16 16 16 18 20 20 18 15 15
8 6 5 6 7 6 8 8 9 11 10 12 10 11 10 10 10 12 15 13 12 11 11 12 13 14 16 16 15 15 11 11 12 13 13 14 15 16 18 20 20 17 15 17
6 6 6 7 8 8 7 9 10 12 11 11 11 12 9 10 13 12 11 10 10 10 11 12 13 13 13 14 13 13 9 10 12 12 12 13 15 17 18 20 20 20 19 19
7 6 7 7 7 7 8 9 10 11 9 10 11 10 9 9 8 6 7 9 9 9 9 10 11 12 12 13 13 13 12 12 13 13 14 15 16 17 19 20 21 23 23 23
7 6 6 7 7 8 8 10 11 7 7 8 8 7 6 5 5 6 7 8 9 9 10 11 12 14 14 14 14 14 14 13 14 14 16 17 18 19 19 21 22 23 25 25
5 6 5 8 6 6 7 5 6 6 6 5 5 6 6 7 7 8 9 10 11 12 12 13 13 14 15 16 15 16 16 16 16 17 17 18 19 20 20 21 22 23 24 25
3 4 3 3 3 3 4 5 7 5 5 6 7 9 10 11 13 13 13 13 14 14 14 15 15 16 17 18 18 18 18 18 18 18 18 18 19 19 19 20 21 23 24 25
3 3 2 2 1 2 3 5 5 7 10 12 14 14 15 16 16 16 16 16 16 17 17 18 19 19 20 20 20 20 20 19 19 19 19 19 19 20 20 20 21 23 23 25
3 3 2 2 5 2 4 6 9 13 16 17 17 18 18 18 18 18 19 19 20 21 21 21 21 21 21 21 21 21 21 21 21 21 22 22 21 21 21 22 22 23 24 25
Wind_Direction
285 283 278 291 289 284 282 278 275 273 269 270 275 279 280 261 261 259 261 262 262 261 268 271 265 258 266 251 254 270 277 282 289 292 293 294 295 295 294 296 296 297 299 299
283 281 301 285 287 283 274 278 280 278 277 268 281 284 285 269 264 266 267 265 264 261 265 271 263 252 270 257 262 282 286 291 290 293 294 296 296 294 294 294 297 298 299 300
290 291 293 288 292 283 270 277 291 290 284 272 286 285 274 282 276 275 273 276 277 265 266 267 270 269 254 255 268 287 292 294 296 291 297 298 296 294 295 297 298 300 301 301
291 295 280 298 294 294 287 295 286 287 286 295 292 294 291 296 297 293 298 289 279 275 269 264 262 266 259 271 277 283 292 295 297 297 299 302 300 297 300 299 300 302 302 302
286 287 295 296 303 295 303 299 291 289 289 292 280 285 294 286 301 305 301 291 285 280 272 265 263 261 269 273 280 283 288 297 304 308 310 308 307 303 302 304 303 303 302 301
280 286 286 296 295 297 296 292 288 289 290 283 304 290 296 305 306 301 301 295 290 283 277 269 270 267 276 275 281 280 288 297 304 308 309 308 309 307 308 306 304 304 304 303
276 282 287 300 288 288 294 301 302 294 290 292 305 296 303 308 313 313 300 297 291 282 276 274 276 278 280 279 276 281 295 303 307 310 311 310 309 308 308 307 305 306 305 306
280 265 304 310 303 300 302 299 294 294 298 296 295 296 307 311 313 314 310 299 281 272 288 286 284 280 282 280 282 292 301 305 310 311 311 312 311 310 308 307 307 306 307 308
277 277 291 310 312 300 300 293 300 291 287 289 293 303 299 313 313 309 305 287 285 295 300 297 287 286 286 291 290 294 299 304 308 311 311 313 312 311 309 309 308 308 308 309
278 284 295 296 295 308 303 299 290 286 292 291 287 294 318 319 304 285 273 292 303 293 294 289 290 293 293 293 295 297 300 304 308 311 312 314 314 313 311 311 311 310 310 311
277 287 295 290 308 306 301 294 301 289 290 293 302 318 326 327 311 258 273 277 306 299 283 296 301 299 297 296 297 297 300 304 307 310 311 312 314 313 312 311 311 309 310 311
279 290 294 303 303 308 312 303 297 285 285 292 304 310 327 328 352 278 281 280 292 284 297 303 305 303 301 298 297 298 300 302 305 308 310 311 311 312 311 310 311 311 311 312
271 284 288 283 284 288 295 304 298 294 292 282 293 309 300 318 330 321 305 297 296 301 299 302 304 305 305 303 301 302 302 304 306 308 310 310 310 311 312 310 311 313 313 313
277 284 286 294 309 297 285 290 282 294 292 290 295 304 310 303 304 305 306 303 300 301 305 304 305 307 309 308 307 305 304 306 307 309 311 311 311 311 312 310 311 313 314 315
273 275 269 295 296 301 305 302 283 283 298 300 300 294 305 309 307 306 304 304 303 306 307 308 307 309 313 311 309 308 308 309 310 312 313 315 314 314 314 313 313 314 316 318
265 257 233 280 288 292 294 304 316 309 303 305 300 298 296 301 304 312 311 309 307 308 310 311 310 312 311 314 315 314 314 316 318 318 322 326 328 327 328 324 321 319 319 320
247 233 245 261 273 287 281 280 291 293 303 306 309 313 290 303 312 314 316 315 314 312 311 311 314 319 322 323 324 324 322 322 324 327 330 333 337 335 335 333 330 326 326 329
227 228 260 266 267 284 294 289 293 297 303 309 308 314 314 310 315 314 325 323 321 319 321 324 325 327 328 328 329 328 329 333 337 337 338 341 344 346 346 342 341 338 336 337
231 237 258 267 270 291 290 284 289 295 306 313 309 312 307 312 308 318 321 323 325 331 330 333 334 333 333 337 338 340 339 346 350 351 355 0 3 359 356 359 359 357 350 344
226 247 261 270 285 292 305 299 294 298 294 320 314 308 305 304 312 317 326 334 339 342 343 342 343 346 349 351 357 1 11 6 7 12 11 9 11 13 12 13 14 13 9 1
225 247 261 276 294 301 305 310 303 300 315 322 329 330 318 326 339 341 344 349 350 355 1 4 10 14 17 26 34 39 37 33 27 27 25 24 22 24 25 24 25 25 24 22
231 242 270 281 296 297 306 302 309 320 326 334 341 355 14 19 21 21 20 25 29 33 38 41 41 43 43 41 42 38 36 32 38 36 35 35 33 31 31 31 30 29 27 25
240 277 277 307 312 322 332 355 349 341 341 357 14 32 46 57 56 57 57 58 63 63 61 58 55 51 49 48 45 46 43 45 47 45 41 38 36 34 33 31 27 24 23 22
245 267 272 308 333 359 11 8 358 17 35 54 70 78 81 81 82 79 76 75 76 73 68 62 60 57 56 57 56 54 52 51 47 43 38 35 32 30 28 26 24 23 21 20
267 213 252 53 100 58 17 24 46 70 85 92 92 90 91 93 90 86 84 83 81 77 72 70 70 66 64 60 57 54 50 47 44 40 36 34 32 29 27 25 23 21 21 20
219 216 266 266 181 338 100 88 98 102 104 102 99 99 98 96 94 91 89 88 85 82 77 75 71 68 64 61 57 53 50 47 45 42 39 37 35 32 30 27 25 24 22 20